• In Kazakhstan
  • List of Countries
  • For 7 days
  • Water Temperature
  • Satellite Maps
  • Weather Map
  • News
  • Weather Widgets
  • user-avatar
    Login

    Hourly Weather Lincoln

    Today, 21 September, Thursday

    Time Temperature Precipitation Wind Pressure Humidity
    00:00 +18°C° 0 mm 3 mps 725 mmHg 40%
    01:00 +18°C° 0 mm 3 mps 725 mmHg 47%
    02:00 +18°C° 0 mm 3 mps 725 mmHg 53%
    03:00 +18°C° 0 mm 4 mps 725 mmHg 60%
    04:00 +18°C° 0 mm 3 mps 725 mmHg 71%
    05:00 +18°C° 0 mm 3 mps 724 mmHg 81%
    06:00 +18°C° 0 mm 2 mps 724 mmHg 92%
    07:00 +20°C° 0 mm 3 mps 724 mmHg 89%
    08:00 +22°C° 0 mm 4 mps 724 mmHg 87%
    09:00 +26°C° 0 mm 4 mps 724 mmHg 84%
    10:00 +28°C° 0 mm 5 mps 724 mmHg 73%
    11:00 +32°C° 0 mm 5 mps 724 mmHg 62%
    12:00 +34°C° 0 mm 6 mps 724 mmHg 51%
    13:00 +35°C° 0 mm 6 mps 723 mmHg 44%
    14:00 +38°C° 0 mm 7 mps 723 mmHg 38%
    15:00 +39°C° 0 mm 7 mps 722 mmHg 32%
    16:00 +38°C° 0 mm 7 mps 722 mmHg 39%
    17:00 +35°C° 0 mm 7 mps 722 mmHg 45%
    18:00 +34°C° 0 mm 7 mps 722 mmHg 51%
    19:00 +33°C° 0 mm 7 mps 722 mmHg 56%
    20:00 +32°C° 0 mm 8 mps 722 mmHg 61%
    21:00 +31°C° 0 mm 8 mps 723 mmHg 67%
    22:00 +31°C° 0 mm 8 mps 723 mmHg 65%
    23:00 +31°C° 0 mm 8 mps 723 mmHg 63%

    Tomorrow, 22 September, Friday

    Time Temperature Precipitation Wind Pressure Humidity
    00:00 +31°C° 0 mm 8 mps 723 mmHg 61%
    01:00 +29°C° 0 mm 8 mps 723 mmHg 62%
    02:00 +29°C° 0 mm 8 mps 723 mmHg 62%
    03:00 +29°C° 0 mm 7 mps 723 mmHg 63%
    04:00 +29°C° 0 mm 7 mps 723 mmHg 62%
    05:00 +29°C° 0 mm 7 mps 723 mmHg 62%
    06:00 +29°C° 0 mm 7 mps 723 mmHg 62%
    07:00 +29°C° 0 mm 8 mps 724 mmHg 61%
    08:00 +29°C° 0 mm 8 mps 724 mmHg 60%
    09:00 +29°C° 0 mm 8 mps 724 mmHg 59%
    10:00 +32°C° 0 mm 8 mps 724 mmHg 54%
    11:00 +34°C° 0 mm 8 mps 725 mmHg 50%
    12:00 +35°C° 0 mm 8 mps 725 mmHg 45%
    13:00 +37°C° 0 mm 8 mps 724 mmHg 42%
    14:00 +36°C° 0 mm 7 mps 724 mmHg 40%
    15:00 +38°C° 0 mm 7 mps 724 mmHg 37%
    16:00 +36°C° 0 mm 7 mps 724 mmHg 40%
    17:00 +35°C° 0 mm 7 mps 723 mmHg 42%
    18:00 +34°C° 0 mm 6 mps 723 mmHg 44%
    19:00 +33°C° 0 mm 7 mps 724 mmHg 49%
    20:00 +32°C° 0 mm 7 mps 724 mmHg 54%
    21:00 +31°C° 0 mm 8 mps 724 mmHg 59%
    22:00 +29°C° 0 mm 8 mps 724 mmHg 59%
    23:00 +29°C° 0 mm 8 mps 724 mmHg 60%

    Day after tomorrow, 23 September, Saturday

    Time Temperature Precipitation Wind Pressure Humidity
    00:00 +29°C° 0 mm 7 mps 725 mmHg 61%
    01:00 +29°C° 0 mm 7 mps 725 mmHg 61%
    02:00 +28°C° 0 mm 7 mps 724 mmHg 62%
    03:00 +28°C° 0 mm 6 mps 724 mmHg 62%
    04:00 +28°C° 0 mm 6 mps 725 mmHg 63%
    05:00 +27°C° 0 mm 5 mps 725 mmHg 64%
    06:00 +27°C° 0 mm 5 mps 725 mmHg 65%
    07:00 +27°C° 0 mm 5 mps 726 mmHg 62%
    08:00 +28°C° 0 mm 6 mps 726 mmHg 59%
    09:00 +29°C° 0 mm 7 mps 726 mmHg 56%
    10:00 +30°C° 0 mm 7 mps 726 mmHg 53%
    11:00 +32°C° 0 mm 7 mps 726 mmHg 49%
    12:00 +34°C° 0 mm 7 mps 726 mmHg 46%
    13:00 +34°C° 0 mm 8 mps 725 mmHg 43%
    14:00 +35°C° 0 mm 8 mps 725 mmHg 40%
    15:00 +37°C° 0 mm 8 mps 725 mmHg 37%
    16:00 +35°C° 0 mm 7 mps 725 mmHg 40%
    17:00 +34°C° 0 mm 7 mps 725 mmHg 43%
    18:00 +33°C° 0 mm 6 mps 724 mmHg 46%
    19:00 +32°C° 0 mm 6 mps 725 mmHg 50%
    20:00 +30°C° 0 mm 7 mps 725 mmHg 54%
    21:00 +29°C° 0 mm 7 mps 725 mmHg 58%
    22:00 +28°C° 0 mm 7 mps 725 mmHg 59%
    23:00 +28°C° 0 mm 7 mps 725 mmHg 60%

    24 September, Sunday

    Time Temperature Precipitation Wind Pressure Humidity
    00:00 +28°C° 0 mm 7 mps 725 mmHg 61%
    01:00 +27°C° 0 mm 6 mps 725 mmHg 62%
    02:00 +27°C° 0 mm 6 mps 725 mmHg 63%
    03:00 +26°C° 0 mm 6 mps 725 mmHg 64%
    04:00 +26°C° 0 mm 5 mps 725 mmHg 66%
    05:00 +25°C° 0 mm 5 mps 725 mmHg 68%
    06:00 +25°C° 0 mm 4 mps 725 mmHg 71%
    07:00 +26°C° 0.2 mm 5 mps 726 mmHg 68%
    08:00 +27°C° 0.2 mm 6 mps 726 mmHg 65%
    09:00 +28°C° 0.2 mm 7 mps 726 mmHg 62%
    10:00 +29°C° 1.1 mm 6 mps 726 mmHg 59%
    11:00 +30°C° 1.1 mm 6 mps 726 mmHg 57%
    12:00 +32°C° 1.1 mm 6 mps 726 mmHg 55%
    13:00 +32°C° 1 mm 5 mps 725 mmHg 53%
    14:00 +32°C° 1 mm 4 mps 725 mmHg 52%
    15:00 +31°C° 1 mm 3 mps 725 mmHg 50%
    16:00 +30°C° 0.5 mm 4 mps 725 mmHg 56%
    17:00 +28°C° 0.5 mm 4 mps 725 mmHg 61%
    18:00 +27°C° 0.5 mm 4 mps 725 mmHg 66%
    19:00 +25°C° 1.7 mm 4 mps 725 mmHg 74%
    20:00 +23°C° 1.7 mm 4 mps 725 mmHg 82%
    21:00 +21°C° 1.7 mm 3 mps 725 mmHg 90%
    22:00 +21°C° 1.8 mm 3 mps 725 mmHg 91%
    23:00 +20°C° 1.8 mm 2 mps 725 mmHg 93%

    25 September, Monday

    Time Temperature Precipitation Wind Pressure Humidity
    00:00 +20°C° 1.8 mm 2 mps 725 mmHg 94%
    01:00 +20°C° 1.7 mm 2 mps 725 mmHg 94%
    02:00 +20°C° 1.7 mm 2 mps 725 mmHg 94%
    03:00 +20°C° 1.7 mm 2 mps 725 mmHg 93%
    04:00 +20°C° 3 mm 2 mps 725 mmHg 94%
    05:00 +20°C° 3 mm 2 mps 725 mmHg 94%
    06:00 +20°C° 3 mm 2 mps 725 mmHg 94%
    07:00 +21°C° 2.3 mm 2 mps 725 mmHg 93%
    08:00 +21°C° 2.3 mm 2 mps 726 mmHg 92%
    09:00 +21°C° 2.3 mm 3 mps 726 mmHg 91%
    10:00 +23°C° 1.2 mm 2 mps 726 mmHg 89%
    11:00 +23°C° 1.2 mm 2 mps 726 mmHg 87%
    12:00 +24°C° 1.2 mm 2 mps 726 mmHg 85%
    13:00 +24°C° 2.1 mm 2 mps 726 mmHg 85%
    14:00 +24°C° 2.1 mm 2 mps 726 mmHg 85%
    15:00 +24°C° 2.1 mm 2 mps 726 mmHg 85%
    16:00 +23°C° 0.7 mm 2 mps 726 mmHg 87%
    17:00 +21°C° 0.7 mm 2 mps 726 mmHg 89%
    18:00 +21°C° 0.7 mm 2 mps 726 mmHg 90%
    19:00 +20°C° 0.7 mm 2 mps 727 mmHg 91%
    20:00 +19°C° 0.7 mm 3 mps 727 mmHg 92%
    21:00 +18°C° 0.7 mm 4 mps 728 mmHg 93%
    22:00 +17°C° 0.2 mm 4 mps 728 mmHg 92%
    23:00 +15°C° 0.2 mm 5 mps 728 mmHg 92%

    26 September, Tuesday

    Time Temperature Precipitation Wind Pressure Humidity
    00:00 +14°C° 0.2 mm 5 mps 728 mmHg 91%
    01:00 +14°C° 0 mm 5 mps 728 mmHg 91%
    02:00 +14°C° 0 mm 6 mps 728 mmHg 91%
    03:00 +13°C° 0 mm 6 mps 729 mmHg 90%
    04:00 +13°C° 0 mm 6 mps 729 mmHg 89%
    05:00 +13°C° 0 mm 6 mps 729 mmHg 88%
    06:00 +13°C° 0 mm 6 mps 730 mmHg 86%
    07:00 +13°C° 0 mm 6 mps 730 mmHg 84%
    08:00 +14°C° 0 mm 6 mps 731 mmHg 82%
    09:00 +14°C° 0 mm 6 mps 731 mmHg 80%
    10:00 +14°C° 0 mm 6 mps 731 mmHg 77%
    11:00 +15°C° 0 mm 6 mps 731 mmHg 75%
    12:00 +15°C° 0 mm 6 mps 731 mmHg 73%
    13:00 +16°C° 0 mm 6 mps 731 mmHg 70%
    14:00 +16°C° 0 mm 6 mps 731 mmHg 68%
    15:00 +17°C° 0 mm 5 mps 731 mmHg 65%
    16:00 +17°C° 0 mm 5 mps 731 mmHg 67%
    17:00 +17°C° 0 mm 4 mps 731 mmHg 70%
    18:00 +16°C° 0 mm 3 mps 731 mmHg 72%
    19:00 +14°C° 0 mm 3 mps 731 mmHg 75%
    20:00 +13°C° 0 mm 3 mps 731 mmHg 78%
    21:00 +12°C° 0 mm 3 mps 731 mmHg 81%
    22:00 +12°C° 0 mm 3 mps 731 mmHg 82%
    23:00 +12°C° 0 mm 3 mps 731 mmHg 83%
    Show more